Beatrice, NE

2:59 AM CST on December 07, 2019 (GMT -0600)
Beatrice Municipal

Weather History for KBIE - October, 2019

Change the Weather History Date:

Tuesday, October 15, 2019

  Actual Average Record
Temperature  
Mean Temperature 51 °F -  
Max Temperature 61 °F 69 °F 87 °F (1963)
Min Temperature 41 °F 43 °F 27 °F (1969)
Degree Days  
Heating Degree Days 14    
Growing Degree Days 1 (Base 50)    
Moisture  
Dew Point 40 °F    
Average Humidity 64    
Maximum Humidity 99    
Minimum Humidity 34    
Precipitation  
Precipitation 0.00 in - - ()
Sea Level Pressure  
Sea Level Pressure 30.02 in    
Wind  
Wind Speed 11 mph (NNW)    
Max Wind Speed 26 mph    
Max Gust Speed 37 mph    
Visibility 10 miles    
Events      
Averages and records for this station are not official NWS values.
T = Trace of Precipitation, MM = Missing Value Source: NWS Daily Summary

Daily Weather History Graph

Daily Weather History Graph

Search for Another Location

Airport or City:

Astronomy

Oct. 15, 2019 Rise Set
Actual Time 7:37 AM CDT 6:47 PM CDT
Civil Twilight 7:10 AM CDT 7:14 PM CDT
Nautical Twilight 6:38 AM CDT 7:46 PM CDT
Astronomical Twilight 6:07 AM CDT 8:17 PM CDT
Moon 8:07 PM CDT (10/15) 9:09 AM CDT (10/15)
Length of Visible Light 12h 04m
Length of Day
11h 09m
Full, 97% of the Moon is Illuminated
Oct 15
Full
Oct 21
Last Quarter
Oct 27
New
Nov 4
First Quarter
Nov 12
Full

Hourly Weather History & Observations

Time (CDT) Temp. Windchill Dew Point Humidity Pressure Visibility Wind Dir Wind Speed Gust Speed Precip Events Conditions
12:15 AM 59.7 °F - 52.2 °F 76% 29.79 in 10.0 mi South 8.1 mph - N/A   Clear
12:35 AM 58.3 °F - 52.2 °F 80% 29.80 in 10.0 mi South 4.6 mph - N/A   Clear
12:55 AM 57.0 °F - 51.8 °F 83% 29.79 in 10.0 mi SSE 5.8 mph - N/A   Clear
1:15 AM 56.7 °F - 52.2 °F 85% 29.79 in 10.0 mi South 5.8 mph - N/A   Clear
1:35 AM 55.8 °F - 52.0 °F 87% 29.79 in 10.0 mi Calm Calm - N/A   Clear
1:55 AM 54.5 °F - 51.8 °F 91% 29.80 in 10.0 mi South 4.6 mph - N/A   Clear
2:15 AM 54.5 °F - 52.0 °F 91% 29.80 in 10.0 mi South 3.5 mph - N/A   Clear
2:35 AM 54.5 °F - 52.5 °F 93% 29.80 in 10.0 mi Calm Calm - N/A   Clear
2:55 AM 50.0 °F - 48.4 °F 94% 29.81 in 7.0 mi Calm Calm - N/A   Clear
3:15 AM 49.8 °F - 49.6 °F 99% 29.83 in 4.0 mi West 8.1 mph 18.4 mph N/A   Clear
3:35 AM 53.4 °F - 52.3 °F 96% 29.83 in 10.0 mi West 3.5 mph - N/A   Clear
3:55 AM 51.8 °F - 50.7 °F 96% 29.83 in 10.0 mi Calm Calm - N/A   Clear
4:15 AM 50.2 °F - 49.8 °F 99% 29.84 in 10.0 mi WNW 6.9 mph - N/A   Clear
4:35 AM 52.2 °F - 48.9 °F 89% 29.85 in 10.0 mi NW 9.2 mph - N/A   Clear
4:55 AM 51.1 °F - 47.3 °F 87% 29.87 in 10.0 mi NNW 9.2 mph - N/A   Clear
5:15 AM 50.7 °F - 45.7 °F 83% 29.89 in 10.0 mi NNW 8.1 mph - N/A   Clear
5:35 AM 49.8 °F - 44.8 °F 83% 29.91 in 10.0 mi NNW 9.2 mph - N/A   Clear
5:55 AM 49.1 °F - 44.1 °F 83% 29.92 in 10.0 mi NNW 10.4 mph - N/A   Clear
6:15 AM 48.4 °F - 43.7 °F 84% 29.93 in 10.0 mi NW 10.4 mph - N/A   Clear
6:35 AM 46.8 °F - 43.0 °F 87% 29.95 in 10.0 mi NW 8.1 mph - N/A   Clear
6:55 AM 46.8 °F - 42.8 °F 86% 29.96 in 10.0 mi NW 10.4 mph - N/A   Clear
7:15 AM 46.6 °F - 42.1 °F 84% 29.97 in 10.0 mi NW 10.4 mph - N/A   Clear
7:35 AM 45.9 °F 41.2 °F 41.5 °F 85% 29.97 in 10.0 mi NW 9.2 mph - N/A   Clear
7:55 AM 45.9 °F 41.2 °F 41.4 °F 84% 29.97 in 10.0 mi NNW 9.2 mph - N/A   Clear
8:15 AM 46.8 °F - 41.4 °F 81% 29.99 in 10.0 mi NNW 9.2 mph 17.3 mph N/A   Clear
8:35 AM 48.2 °F - 41.9 °F 79% 30.00 in 10.0 mi NNW 11.5 mph - N/A   Clear
8:55 AM 47.5 °F - 41.5 °F 80% 30.01 in 10.0 mi NW 9.2 mph - N/A   Clear
9:15 AM 49.5 °F - 41.9 °F 75% 30.03 in 10.0 mi NNW 16.1 mph 21.9 mph N/A   Clear
9:35 AM 51.4 °F - 41.7 °F 69% 30.03 in 10.0 mi NNW 19.6 mph 28.8 mph N/A   Clear
9:55 AM 52.3 °F - 41.7 °F 67% 30.04 in 10.0 mi NNW 18.4 mph 26.5 mph N/A   Clear
10:15 AM 53.2 °F - 40.6 °F 62% 30.05 in 10.0 mi NNW 23.0 mph 28.8 mph N/A   Clear
10:35 AM 54.3 °F - 39.2 °F 57% 30.05 in 10.0 mi NNW 24.2 mph 31.1 mph N/A   Clear
10:55 AM 54.9 °F - 37.8 °F 53% 30.05 in 10.0 mi NNW 21.9 mph 28.8 mph N/A   Clear
11:15 AM 56.7 °F - 37.8 °F 49% 30.06 in 10.0 mi NNW 20.7 mph 28.8 mph N/A   Clear
11:35 AM 57.4 °F - 36.5 °F 46% 30.06 in 10.0 mi NNW 21.9 mph 29.9 mph N/A   Clear
11:55 AM 57.9 °F - 35.1 °F 42% 30.07 in 10.0 mi North 21.9 mph 28.8 mph N/A   Clear
12:10 PM 58.3 °F - 34.5 °F 41% 30.07 in 10.0 mi NNW 21.9 mph 27.6 mph N/A   Clear
12:35 PM 59.2 °F - 34.9 °F 40% 30.07 in 10.0 mi NNW 19.6 mph 26.5 mph N/A   Clear
12:55 PM 59.7 °F - 34.3 °F 39% 30.07 in 10.0 mi NNW 18.4 mph 29.9 mph N/A   Clear
1:15 PM 59.9 °F - 34.3 °F 38% 30.07 in 10.0 mi North 19.6 mph 28.8 mph N/A   Clear
1:35 PM 59.9 °F - 33.6 °F 37% 30.07 in 10.0 mi NNW 23.0 mph 28.8 mph N/A   Clear
1:55 PM 60.1 °F - 35.1 °F 39% 30.06 in 10.0 mi NNW 24.2 mph 31.1 mph N/A   Clear
2:15 PM 61.2 °F - 35.8 °F 39% 30.05 in 10.0 mi NNW 25.3 mph 31.1 mph N/A   Clear
2:35 PM 61.0 °F - 34.9 °F 38% 30.05 in 10.0 mi NNW 23.0 mph 31.1 mph N/A   Clear
2:55 PM 60.8 °F - 32.9 °F 35% 30.05 in 10.0 mi NNW 24.2 mph 35.7 mph N/A   Clear
3:15 PM 61.0 °F - 33.1 °F 35% 30.05 in 10.0 mi NW 25.3 mph 36.8 mph N/A   Clear
3:35 PM 61.3 °F - 32.7 °F 34% 30.05 in 10.0 mi NW 25.3 mph 34.5 mph N/A   Clear
3:55 PM 60.3 °F - 32.2 °F 35% 30.06 in 10.0 mi NNW 25.3 mph 32.2 mph N/A   Clear
4:15 PM 60.6 °F - 32.9 °F 35% 30.06 in 10.0 mi NNW 23.0 mph 28.8 mph N/A   Clear
4:35 PM 59.5 °F - 32.0 °F 35% 30.06 in 10.0 mi NNW 23.0 mph 33.4 mph N/A   Clear
4:55 PM 59.0 °F - 32.0 °F 36% 30.07 in 10.0 mi NNW 23.0 mph 31.1 mph N/A   Clear
5:15 PM 58.5 °F - 32.2 °F 37% 30.08 in 10.0 mi NNW 18.4 mph 27.6 mph N/A   Clear
5:35 PM 57.7 °F - 32.5 °F 39% 30.09 in 10.0 mi NNW 23.0 mph 28.8 mph N/A   Clear
5:55 PM 56.3 °F - 31.8 °F 39% 30.10 in 10.0 mi NNW 26.5 mph 31.1 mph N/A   Clear
6:15 PM 54.7 °F - 32.5 °F 43% 30.11 in 10.0 mi NNW 17.3 mph 21.9 mph N/A   Clear
6:35 PM 52.9 °F - 32.7 °F 46% 30.12 in 10.0 mi North 15.0 mph 23.0 mph N/A   Clear
6:55 PM 51.6 °F - 32.9 °F 49% 30.13 in 10.0 mi NNW 17.3 mph 21.9 mph N/A   Clear
7:15 PM 50.9 °F - 32.9 °F 50% 30.14 in 10.0 mi NNW 18.4 mph 24.2 mph N/A   Clear
7:35 PM 49.8 °F - 33.1 °F 53% 30.14 in 10.0 mi North 12.7 mph 23.0 mph N/A   Clear
7:55 PM 48.0 °F - 33.6 °F 57% 30.15 in 10.0 mi NNW 11.5 mph 19.6 mph N/A   Clear
8:15 PM 47.3 °F - 33.8 °F 59% 30.16 in 10.0 mi NNW 11.5 mph - N/A   Clear
8:35 PM 47.3 °F - 33.3 °F 58% 30.16 in 10.0 mi NNW 13.8 mph 19.6 mph N/A   Clear
8:55 PM 46.9 °F - 33.3 °F 59% 30.17 in 10.0 mi NNW 12.7 mph - N/A   Clear
9:15 PM 48.2 °F - 33.4 °F 57% 30.17 in 10.0 mi NNW 17.3 mph 24.2 mph N/A   Clear
9:35 PM 46.6 °F - 33.8 °F 61% 30.18 in 10.0 mi NW 11.5 mph 18.4 mph N/A   Clear
9:55 PM 44.6 °F 39.7 °F 34.0 °F 66% 30.19 in 10.0 mi North 9.2 mph - N/A   Clear
10:15 PM 42.8 °F 37.5 °F 34.0 °F 71% 30.19 in 10.0 mi North 9.2 mph - N/A   Clear
10:35 PM 43.2 °F 39.0 °F 34.7 °F 72% 30.20 in 10.0 mi North 6.9 mph - N/A   Scattered Clouds
11:15 PM 41.9 °F 36.9 °F 34.9 °F 76% 30.20 in 10.0 mi NNW 8.1 mph - N/A   Overcast
11:35 PM 44.2 °F 39.7 °F 35.6 °F 72% 30.20 in 10.0 mi NNW 8.1 mph - N/A   Mostly Cloudy
11:55 PM 45.0 °F 39.7 °F 35.6 °F 70% 30.20 in 10.0 mi NNW 10.4 mph - N/A   Overcast